This is the latest recevied weather packets stored in our database for station/object OK1PMP-6. If no packets are shown the sender has not sent any weather packets the latest 10 day(s).
| Time | Temp. | Humidity | Pressure | Rain* | Wind** | Luminosity | Snow |
|---|---|---|---|---|---|---|---|
| 1777849986 | 13.89° C | 51% | 1016.9 hPa | 0 mm | - | 0 W/m² | - |
| 1777849086 | 13.89° C | 51% | 1016.9 hPa | 0 mm | - | 0 W/m² | - |
| 1777848186 | 14.44° C | 50% | 1016.9 hPa | 0 mm | - | 0 W/m² | - |
| 1777847286 | 15° C | 49% | 1016.9 hPa | 0 mm | - | 0 W/m² | - |
| 1777846385 | 15° C | 49% | 1016.8 hPa | 0 mm | - | 0 W/m² | - |
| 1777845485 | 15° C | 49% | 1017 hPa | 0 mm | - | 0 W/m² | - |
| 1777844585 | 15.56° C | 47% | 1016.9 hPa | 0 mm | - | 0 W/m² | - |
| 1777843685 | 15.56° C | 47% | 1016.8 hPa | 0 mm | - | 0 W/m² | - |
| 1777842790 | 16.11° C | 46% | 1016.8 hPa | 0 mm | - | 0 W/m² | - |
| 1777841883 | 16.67° C | 45% | 1017 hPa | 0 mm | - | 0 W/m² | - |
| 1777840983 | 17.78° C | 43% | 1016.8 hPa | 0 mm | - | 0 W/m² | - |
| 1777840084 | 17.78° C | 42% | 1016.8 hPa | 0 mm | - | 0 W/m² | - |
| 1777839180 | 18.33° C | 42% | 1016.9 hPa | 0 mm | - | 0 W/m² | - |
| 1777838280 | 18.89° C | 41% | 1016.8 hPa | 0 mm | - | 0 W/m² | - |
| 1777837380 | 18.89° C | 41% | 1016.8 hPa | 0 mm | - | 0 W/m² | - |
| 1777836481 | 18.89° C | 40% | 1016.7 hPa | 0 mm | - | 0 W/m² | - |
| 1777835580 | 18.89° C | 40% | 1016.8 hPa | 0 mm | - | 0 W/m² | - |
| 1777834680 | 19.44° C | 39% | 1016.7 hPa | 0 mm | - | 0 W/m² | - |
| 1777833782 | 20° C | 38% | 1016.7 hPa | 0 mm | - | 0 W/m² | - |
| 1777832879 | 20° C | 38% | 1016.5 hPa | 0 mm | - | 0 W/m² | - |
| 1777831981 | 20.56° C | 37% | 1016.4 hPa | 0 mm | - | 3 W/m² | - |
| 1777831077 | 21.11° C | 36% | 1016.3 hPa | 0 mm | - | 7 W/m² | - |
| 1777830178 | 22.22° C | 34% | 1016 hPa | 0 mm | - | 17 W/m² | - |
| 1777829278 | 22.22° C | 34% | 1016 hPa | 0 mm | - | 27 W/m² | - |
| 1777828379 | 23.33° C | 33% | 1015.9 hPa | 0 mm | - | 39 W/m² | - |
* Rain latest hour (hover to see other rain measurements)
** Current wind speed in m/s (hover to see current wind gust speed)